"Pseudo-MPEC" for P11Fq3G

Created 2023 Jun 4 14:22:06 UT using Find_Orb

Click here for an explanation of pseudo-MPECs

 
 Astrometry: 
     P11Fq3G* C2023 05 158U6=aool-3_iFNCkWyJ5FAstrometry\=?#FBIBlX2ds(YeiGJYGF51
     P11Fq3G  C2023 05 15R8cVcyyulypoAcMSM5`?%-Dredacted;8TclickvnG`J09'/UfKnF51
     P11Fq3G  C2023 05 15?Ac:^jG1D]Ld3.TB^ixMS7.F0\KY!heremv;Qgc=eCOV7JxPLANSF51
     P11Fq3G  C2023 05 15N@afork@LMexplanationl+)_[Djaaha*q#a/M9_T5g-c-ITNu\tF51

Station data:
(F51) Pan-STARRS 1, Haleakala  (N20.707234 W156.255910)  US/Hawaii.
   Observers J. Bulger, T. Lowe, A. Schultz, M. Willman. Measurers K.
   Chambers, S. Chastel, T. de Boer, L. Denneau, J. Fairlamb, H. Flewelling,
   M. Huber, C.-C. Lin, E. Magnier, Y. Ramanjooloo, R. Wainscoat, R. Weryk.
   1.8-m Ritchey-Chrétien + CCD.

Orbital elements:  P11Fq3G
   Perihelion 2024 Jul 9.76637 +/- 349 TT = 18:23:34 (JD 2460501.26637)
Epoch 2023 May 15.0 TT = JDT 2460079.5   Earth MOID: 0.7316      AutoNEOCP
M 204.83863164 +/- 120              (J2000 ecliptic)
n   0.36788463 +/- 0.219            Peri.  218.71503 +/- 60
a   1.92898246 +/- 0.767            Node   172.14825 +/- 45
e   0.1131064 +/- 0.252             Incl.   18.05184 +/- 42
P   2.68/978.55d           H 19.45  G  0.15   U 11.7  SR
q 1.71080209 +/- 1.04    Q 2.14716283 +/- 30.2
From 4 observations 2023 May 15 (51.9 min); mean residual 0".08
Residuals in arcseconds: 
230515 F51  .02+  .02-    230515 F51  .05+  .15-    
230515 F51  .05-  .11+    230515 F51  .01-  .06+    

Ephemerides (geocentric):
Date (UTC) HH   RA             Dec           delta  r     elong  mag " sig PA
---- --------  ------------   ------------  ------ ------ -----  --- --------
2023 06 04 14  15 05 33.154   +12 00 59.30  1.2583 2.1194 137.4 22.6  32d 172
2023 06 04 15  15 05 31.264   +12 00 59.01  1.2586 2.1193 137.4 22.6  32d 172
2023 06 04 16  15 05 29.377   +12 00 58.69  1.2588 2.1193 137.3 22.6  32d 172
2023 06 04 17  15 05 27.493   +12 00 58.32  1.2590 2.1193 137.3 22.6  32d 172
2023 06 04 18  15 05 25.612   +12 00 57.92  1.2592 2.1193 137.3 22.6  32d 172
2023 06 04 19  15 05 23.733   +12 00 57.48  1.2594 2.1192 137.2 22.6  32d 172
2023 06 04 20  15 05 21.857   +12 00 56.99  1.2596 2.1192 137.2 22.6  32d 172
2023 06 04 21  15 05 19.983   +12 00 56.47  1.2599 2.1192 137.2 22.6  32d 172
2023 06 04 22  15 05 18.112   +12 00 55.90  1.2601 2.1191 137.1 22.6  32d 172
2023 06 04 23  15 05 16.243   +12 00 55.30  1.2603 2.1191 137.1 22.6  32d 172
2023 06 05 00  15 05 14.378   +12 00 54.65  1.2605 2.1191 137.1 22.6  32d 172
2023 06 05 01  15 05 12.515   +12 00 53.97  1.2607 2.1191 137.0 22.6  32d 172
2023 06 05 02  15 05 10.654   +12 00 53.24  1.2610 2.1190 137.0 22.6  32d 172
2023 06 05 03  15 05 08.796   +12 00 52.48  1.2612 2.1190 137.0 22.6  32d 172
2023 06 05 04  15 05 06.941   +12 00 51.67  1.2614 2.1190 136.9 22.6  32d 172
2023 06 05 05  15 05 05.089   +12 00 50.83  1.2616 2.1190 136.9 22.6  32d 172
2023 06 05 06  15 05 03.239   +12 00 49.94  1.2618 2.1189 136.9 22.6  32d 172
2023 06 05 07  15 05 01.392   +12 00 49.02  1.2620 2.1189 136.8 22.6  32d 172
2023 06 05 08  15 04 59.547   +12 00 48.06  1.2623 2.1189 136.8 22.6  32d 172
2023 06 05 09  15 04 57.705   +12 00 47.05  1.2625 2.1189 136.8 22.6  32d 172
2023 06 05 10  15 04 55.866   +12 00 46.01  1.2627 2.1188 136.7 22.6  32d 172
2023 06 05 11  15 04 54.030   +12 00 44.93  1.2629 2.1188 136.7 22.6  32d 172
2023 06 05 12  15 04 52.196   +12 00 43.80  1.2632 2.1188 136.7 22.6  32d 172
2023 06 05 13  15 04 50.365   +12 00 42.64  1.2634 2.1188 136.6 22.6  32d 172
2023 06 05 14  15 04 48.536   +12 00 41.44  1.2636 2.1187 136.6 22.6  32d 172
2023 06 05 15  15 04 46.710   +12 00 40.20  1.2638 2.1187 136.6 22.6  32d 172
2023 06 05 16  15 04 44.887   +12 00 38.91  1.2640 2.1187 136.5 22.6  32d 172
2023 06 05 17  15 04 43.067   +12 00 37.59  1.2643 2.1187 136.5 22.6  32d 172
2023 06 05 18  15 04 41.249   +12 00 36.23  1.2645 2.1186 136.5 22.6  32d 172
2023 06 05 19  15 04 39.434   +12 00 34.83  1.2647 2.1186 136.4 22.6  32d 172
2023 06 05 20  15 04 37.622   +12 00 33.39  1.2649 2.1186 136.4 22.6  32d 172
2023 06 05 21  15 04 35.812   +12 00 31.91  1.2652 2.1185 136.4 22.6  32d 172
2023 06 05 22  15 04 34.005   +12 00 30.40  1.2654 2.1185 136.3 22.6  32d 172
2023 06 05 23  15 04 32.201   +12 00 28.84  1.2656 2.1185 136.3 22.6  32d 172
2023 06 06 00  15 04 30.400   +12 00 27.24  1.2658 2.1185 136.3 22.6  32d 172
2023 06 06 01  15 04 28.601   +12 00 25.60  1.2661 2.1184 136.2 22.6  32d 172
2023 06 06 02  15 04 26.805   +12 00 23.93  1.2663 2.1184 136.2 22.6  32d 172
2023 06 06 03  15 04 25.011   +12 00 22.21  1.2665 2.1184 136.2 22.6  32d 172
2023 06 06 04  15 04 23.221   +12 00 20.46  1.2667 2.1184 136.1 22.6  32d 172
2023 06 06 05  15 04 21.433   +12 00 18.66  1.2670 2.1183 136.1 22.6  32d 172
2023 06 06 06  15 04 19.648   +12 00 16.83  1.2672 2.1183 136.1 22.6  32d 172
2023 06 06 07  15 04 17.865   +12 00 14.96  1.2674 2.1183 136.0 22.6  32d 172
2023 06 06 08  15 04 16.085   +12 00 13.05  1.2676 2.1183 136.0 22.6  32d 172
2023 06 06 09  15 04 14.308   +12 00 11.10  1.2679 2.1182 136.0 22.6  32d 172
2023 06 06 10  15 04 12.534   +12 00 09.11  1.2681 2.1182 135.9 22.6  32d 172
2023 06 06 11  15 04 10.762   +12 00 07.08  1.2683 2.1182 135.9 22.6  32d 172
2023 06 06 12  15 04 08.994   +12 00 05.01  1.2685 2.1182 135.9 22.6  32d 172
2023 06 06 13  15 04 07.228   +12 00 02.90  1.2688 2.1181 135.8 22.6  32d 172